When you browse on this site, cookies collect data to enhance your experience and personalize the content and advertising you see.
Visit our Privacy Policy to learn more. By continuing to use the site, you agree to this use of cookies and data.
  • In Latvia
  • List of Countries
  • For 7 days
  • Water Temperature
  • Satellite Maps
  • Weather Map
  • Weather Widgets
  • user-avatar
    Login

    Hourly Weather Zaranj

    Today, 15 February, Friday

    Time Temperature Precipitation Wind Pressure Humidity
    00:00 +12°C° 0 mm 1 mps 723 mmHg 43%
    01:00 +12°C° 0 mm 1 mps 723 mmHg 43%
    02:00 +11°C° 0 mm 1 mps 723 mmHg 43%
    03:00 +11°C° 0 mm 1 mps 723 mmHg 44%
    04:00 +10°C° 0 mm 1 mps 723 mmHg 45%
    05:00 +10°C° 0 mm 1 mps 723 mmHg 44%
    06:00 +10°C° 0 mm 1 mps 723 mmHg 44%
    07:00 +10°C° 0 mm 1 mps 724 mmHg 44%
    08:00 +11°C° 0 mm 1 mps 724 mmHg 39%
    09:00 +12°C° 0 mm 1 mps 724 mmHg 35%
    10:00 +14°C° 0 mm 1 mps 724 mmHg 31%
    11:00 +15°C° 0 mm 1 mps 724 mmHg 29%
    12:00 +16°C° 0 mm 2 mps 724 mmHg 26%
    13:00 +16°C° 0 mm 2 mps 723 mmHg 24%
    14:00 +17°C° 0 mm 2 mps 723 mmHg 23%
    15:00 +17°C° 0 mm 2 mps 722 mmHg 22%
    16:00 +18°C° 0 mm 2 mps 722 mmHg 22%
    17:00 +17°C° 0 mm 2 mps 722 mmHg 24%
    18:00 +17°C° 0 mm 2 mps 722 mmHg 26%
    19:00 +16°C° 0 mm 3 mps 722 mmHg 28%
    20:00 +16°C° 0 mm 3 mps 722 mmHg 30%
    21:00 +14°C° 0 mm 3 mps 722 mmHg 31%
    22:00 +14°C° 0 mm 3 mps 722 mmHg 32%
    23:00 +13°C° 0 mm 3 mps 722 mmHg 33%

    Tomorrow, 16 February, Saturday

    Time Temperature Precipitation Wind Pressure Humidity
    00:00 +13°C° 0 mm 3 mps 722 mmHg 34%
    01:00 +12°C° 0 mm 3 mps 721 mmHg 35%
    02:00 +12°C° 0 mm 3 mps 721 mmHg 36%
    03:00 +12°C° 0 mm 3 mps 721 mmHg 36%
    04:00 +12°C° 0 mm 2 mps 721 mmHg 37%
    05:00 +11°C° 0 mm 3 mps 721 mmHg 37%
    06:00 +11°C° 0 mm 3 mps 721 mmHg 37%
    07:00 +11°C° 0 mm 3 mps 721 mmHg 36%
    08:00 +13°C° 0 mm 3 mps 721 mmHg 32%
    09:00 +14°C° 0 mm 4 mps 721 mmHg 29%
    10:00 +17°C° 0 mm 4 mps 721 mmHg 25%
    11:00 +18°C° 0 mm 4 mps 720 mmHg 22%
    12:00 +20°C° 0 mm 4 mps 720 mmHg 19%
    13:00 +21°C° 0 mm 4 mps 719 mmHg 16%
    14:00 +22°C° 0 mm 3 mps 718 mmHg 17%
    15:00 +22°C° 0 mm 3 mps 718 mmHg 17%
    16:00 +23°C° 0 mm 2 mps 717 mmHg 18%
    17:00 +21°C° 0 mm 2 mps 717 mmHg 20%
    18:00 +20°C° 0 mm 2 mps 717 mmHg 23%
    19:00 +19°C° 0 mm 2 mps 717 mmHg 26%
    20:00 +20°C° 0 mm 1 mps 716 mmHg 27%
    21:00 +19°C° 0 mm 1 mps 716 mmHg 29%
    22:00 +18°C° 0 mm 1 mps 716 mmHg 31%
    23:00 +18°C° 0 mm 1 mps 715 mmHg 31%

    Day after tomorrow, 17 February, Sunday

    Time Temperature Precipitation Wind Pressure Humidity
    00:00 +18°C° 0 mm 1 mps 715 mmHg 31%
    01:00 +17°C° 0 mm 2 mps 715 mmHg 31%
    02:00 +16°C° 0 mm 2 mps 715 mmHg 32%
    03:00 +16°C° 0 mm 2 mps 715 mmHg 33%
    04:00 +15°C° 0 mm 2 mps 715 mmHg 34%
    05:00 +16°C° 0 mm 3 mps 715 mmHg 38%
    06:00 +16°C° 0 mm 3 mps 716 mmHg 42%
    07:00 +15°C° 0 mm 4 mps 716 mmHg 45%
    08:00 +17°C° 0 mm 4 mps 717 mmHg 43%
    09:00 +18°C° 0 mm 4 mps 717 mmHg 40%
    10:00 +20°C° 0 mm 3 mps 718 mmHg 37%
    11:00 +20°C° 0 mm 4 mps 717 mmHg 34%
    12:00 +21°C° 0 mm 4 mps 717 mmHg 30%
    13:00 +22°C° 0 mm 4 mps 717 mmHg 26%
    14:00 +22°C° 0 mm 4 mps 716 mmHg 26%
    15:00 +21°C° 0 mm 5 mps 715 mmHg 25%
    16:00 +21°C° 0 mm 6 mps 715 mmHg 24%
    17:00 +20°C° 0 mm 5 mps 715 mmHg 26%
    18:00 +19°C° 0 mm 4 mps 715 mmHg 27%
    19:00 +19°C° 0 mm 3 mps 715 mmHg 28%
    20:00 +18°C° 0 mm 2 mps 715 mmHg 30%
    21:00 +17°C° 0 mm 2 mps 715 mmHg 32%
    22:00 +18°C° 0 mm 1 mps 715 mmHg 33%
    23:00 +17°C° 0 mm 2 mps 715 mmHg 34%

    18 February, Monday

    Time Temperature Precipitation Wind Pressure Humidity
    00:00 +17°C° 0 mm 2 mps 715 mmHg 34%
    01:00 +17°C° 0 mm 3 mps 715 mmHg 35%
    02:00 +16°C° 0.1 mm 3 mps 715 mmHg 36%
    03:00 +16°C° 0.1 mm 3 mps 715 mmHg 37%
    04:00 +14°C° 0.1 mm 3 mps 715 mmHg 39%
    05:00 +14°C° 0 mm 3 mps 715 mmHg 38%
    06:00 +14°C° 0 mm 3 mps 715 mmHg 38%
    07:00 +13°C° 0 mm 3 mps 716 mmHg 38%
    08:00 +14°C° 0 mm 3 mps 717 mmHg 34%
    09:00 +17°C° 0 mm 4 mps 717 mmHg 31%
    10:00 +17°C° 0 mm 5 mps 718 mmHg 27%
    11:00 +19°C° 0 mm 4 mps 717 mmHg 25%
    12:00 +19°C° 0 mm 4 mps 717 mmHg 23%
    13:00 +20°C° 0 mm 3 mps 717 mmHg 21%
    14:00 +20°C° 0 mm 3 mps 716 mmHg 20%
    15:00 +20°C° 0 mm 3 mps 716 mmHg 20%
    16:00 +21°C° 0 mm 2 mps 715 mmHg 19%
    17:00 +20°C° 0 mm 2 mps 715 mmHg 21%
    18:00 +19°C° 0 mm 2 mps 715 mmHg 23%
    19:00 +18°C° 0 mm 2 mps 715 mmHg 25%
    20:00 +18°C° 0 mm 2 mps 715 mmHg 26%
    21:00 +17°C° 0 mm 2 mps 715 mmHg 27%
    22:00 +17°C° 0 mm 2 mps 715 mmHg 28%
    23:00 +16°C° 0 mm 2 mps 715 mmHg 29%

    19 February, Tuesday

    Time Temperature Precipitation Wind Pressure Humidity
    00:00 +16°C° 0 mm 2 mps 714 mmHg 30%
    01:00 +15°C° 0 mm 2 mps 714 mmHg 32%
    02:00 +15°C° 0 mm 2 mps 714 mmHg 33%
    03:00 +15°C° 0 mm 2 mps 713 mmHg 34%
    04:00 +14°C° 0 mm 2 mps 713 mmHg 35%
    05:00 +14°C° 0 mm 2 mps 713 mmHg 36%
    06:00 +14°C° 0 mm 2 mps 713 mmHg 36%
    07:00 +13°C° 0 mm 2 mps 713 mmHg 37%
    08:00 +15°C° 0 mm 2 mps 714 mmHg 34%
    09:00 +16°C° 0 mm 2 mps 714 mmHg 31%
    10:00 +17°C° 0 mm 2 mps 714 mmHg 28%
    11:00 +18°C° 0 mm 2 mps 714 mmHg 28%
    12:00 +19°C° 0 mm 2 mps 714 mmHg 27%
    13:00 +20°C° 0 mm 2 mps 713 mmHg 26%
    14:00 +21°C° 0 mm 2 mps 713 mmHg 25%
    15:00 +21°C° 0 mm 2 mps 713 mmHg 24%
    16:00 +23°C° 0 mm 2 mps 713 mmHg 23%
    17:00 +21°C° 0 mm 2 mps 713 mmHg 25%
    18:00 +20°C° 0 mm 2 mps 713 mmHg 27%
    19:00 +20°C° 0 mm 1 mps 714 mmHg 29%
    20:00 +18°C° 0 mm 2 mps 714 mmHg 30%
    21:00 +18°C° 0 mm 2 mps 714 mmHg 30%
    22:00 +18°C° 0 mm 3 mps 715 mmHg 30%
    23:00 +17°C° 0 mm 4 mps 715 mmHg 35%

    20 February, Wednesday

    Time Temperature Precipitation Wind Pressure Humidity
    00:00 +15°C° 0 mm 5 mps 715 mmHg 39%
    01:00 +15°C° 0 mm 6 mps 715 mmHg 43%
    02:00 +13°C° 0 mm 8 mps 715 mmHg 44%
    03:00 +13°C° 0 mm 9 mps 715 mmHg 44%
    04:00 +12°C° 0 mm 10 mps 715 mmHg 45%
    05:00 +11°C° 0 mm 10 mps 716 mmHg 48%
    06:00 +11°C° 0 mm 10 mps 717 mmHg 51%
    07:00 +9°C° 0 mm 10 mps 717 mmHg 54%
    08:00 +9°C° 0 mm 11 mps 718 mmHg 52%
    09:00 +10°C° 0 mm 12 mps 718 mmHg 49%
    10:00 +10°C° 0 mm 13 mps 719 mmHg 47%
    11:00 +10°C° 0 mm 14 mps 719 mmHg 45%
    12:00 +10°C° 0 mm 14 mps 718 mmHg 44%
    13:00 +10°C° 0 mm 15 mps 718 mmHg 43%
    14:00 +10°C° 0 mm 15 mps 718 mmHg 42%
    15:00 +10°C° 0 mm 15 mps 718 mmHg 41%
    16:00 +10°C° 0 mm 15 mps 719 mmHg 41%
    17:00 +9°C° 0 mm 14 mps 719 mmHg 41%
    18:00 +8°C° 0 mm 14 mps 720 mmHg 42%
    19:00 +6°C° 0 mm 14 mps 721 mmHg 42%
    20:00 +5°C° 0 mm 14 mps 722 mmHg 43%
    21:00 +4°C° 0 mm 13 mps 722 mmHg 44%
    22:00 +4°C° 0 mm 13 mps 723 mmHg 45%
    23:00 +3°C° 0 mm 13 mps 723 mmHg 45%
    Show more